Location: Auckland
(36.8670°S, 174.7670°E)
Time: 19:22:48
(UTC+12:00)

NOSS 2-1 (E) - Pass Details

Date: 03 May 2019
Orbit: 471 x 1733 km, 63.3° (Epoch: 21 May)

Event Time Altitude Azimuth Distance (km) Brightness Sun altitude
Rises 20:58:24 0° 209° (SSW) 4,568 8.4 -41.2°
Reaches altitude 10° 21:02:20 10° 198° (SSW) 3,374 7.5 -41.9°
Enters shadow 21:04:34 17° 186° (S) 2,753 6.9 -42.4°
